Flag for Germany Weather past 2 weeks in Lörrach, Baden-Württemberg, Germany

Now
59 °F

Passing clouds.


Feels Like: 58 °F
Forecast: 49 / 74 °F
Wind: 6 mph from Southwest

Location: Bale-Mulhouse

Current Time: May 30, 2015 at 2:58:33 AM

Latest Report: May 30, 2015 at 2:30 AM


Visibility: N/A

Pressure: 29.95 "Hg

Humidity: 63%

Dew point: 46 °F

Location of LörrachLocation

Historic Weather in Lörrach — Graph

°F

Lörrach temperature yesterday

Maximum temperature yesterday: 77 °F (at 3:30 PM)
Minimum temperature yesterday: 48 °F (at 3:00 AM)
Average temperature yesterday: 64 °F

Past Weeks' High & Low Weather Summary

 TemperatureHumidityPressure
High77 °F (May 29, 3:30 PM)100% (May 15, 6:30 PM)30.30 "Hg (May 15, 6:30 PM)
Low39 °F (May 22, 5:00 AM)31% (May 29, 4:00 PM)29.77 "Hg (May 18, 6:30 PM)
Average57 °F71%30.07 "Hg
* Reported May 15 1:00 AM — May 30 1:30 AM, Lörrach, Weather by CustomWeather, © 2015

Note: Actual official high and low records may vary slightly from our data, if they occured in-between our weather recording intervals... More about our weather records

Advertising

Lörrach weather history for previous 24 hours

 ConditionsComfort  
Time TempWeatherWind HumidityBarometerVisibility
1:30 AM
Sat, May 30
61 °FClear.7 mph59%29.95 "Hg10 mi
1:00 AM59 °FCool.6 mph68%29.95 "HgN/A
12:30 AM61 °FClear.8 mph63%29.95 "Hg10 mi
12:00 AM61 °FClear.8 mph63%29.92 "Hg10 mi
11:30 PM
Fri, May 29
63 °FClear.8 mph59%29.92 "Hg10 mi
10:30 PM63 °FClear.8 mph64%29.92 "Hg10 mi
10:00 PM63 °FSunny.6 mph64%29.89 "Hg10 mi
9:30 PM64 °FSunny.7 mph60%29.89 "Hg10 mi
9:00 PM68 °FSunny.9 mph49%29.86 "Hg10 mi
8:30 PM72 °FPassing clouds.9 mph33%29.86 "HgN/A
8:00 PM73 °FPassing clouds.14 mph31%29.86 "HgN/A
7:30 PM73 °FPassing clouds.12 mph33%29.86 "HgN/A
7:00 PM75 °FSunny.17 mph31%29.83 "Hg10 mi
6:30 PM75 °FPassing clouds.16 mph34%29.83 "HgN/A
6:00 PM75 °FPassing clouds.17 mph34%29.83 "HgN/A
5:30 PM77 °FScattered clouds.17 mph32%29.83 "HgN/A
5:00 PM77 °FScattered clouds.18 mph32%29.83 "HgN/A
4:30 PM77 °FScattered clouds.17 mph32%29.83 "HgN/A
4:00 PM75 °FPartly sunny.16 mph31%29.83 "HgN/A
3:30 PM77 °FPartly sunny.16 mph34%29.83 "HgN/A
3:00 PM75 °FScattered clouds.13 mph41%29.86 "HgN/A
2:30 PM75 °FScattered clouds.12 mph41%29.86 "HgN/A
2:00 PM75 °FBroken clouds.10 mph44%29.89 "HgN/A
1:30 PM73 °FBroken clouds.6 mph50%29.89 "HgN/A
1:00 PM70 °FBroken clouds.7 mph50%29.89 "HgN/A
12:30 PM70 °FBroken clouds.6 mph50%29.89 "HgN/A
12:00 PM70 °FBroken clouds.2 mph50%29.92 "HgN/A
11:30 AM70 °FBroken clouds.1 mph50%29.92 "HgN/A
11:00 AM68 °FPartly sunny.5 mph46%29.92 "HgN/A
10:30 AM66 °FPartly sunny.7 mph56%29.92 "HgN/A
10:00 AM64 °FPartly sunny.6 mph64%29.95 "HgN/A
9:30 AM61 °FBroken clouds.5 mph68%29.95 "HgN/A
9:00 AM59 °FBroken clouds.3 mph77%29.95 "HgN/A
8:30 AM57 °FBroken clouds.5 mph77%29.95 "HgN/A
8:00 AM54 °FBroken clouds.5 mph88%29.95 "HgN/A
7:30 AM54 °FBroken clouds.5 mph82%29.95 "HgN/A
7:00 AM54 °FLight rain. Clear.6 mph82%29.98 "HgN/A
6:30 AM50 °FClear.2 mph88%29.95 "Hg10 mi
6:00 AM50 °FClear.No wind82%29.95 "Hg10 mi
5:30 AM52 °FClear.1 mph82%29.95 "Hg10 mi
5:00 AM52 °FPassing clouds.3 mph82%29.98 "HgN/A
4:30 AM52 °FLight rain. Clear.6 mph88%29.98 "HgN/A
4:00 AM50 °FClear.6 mph88%29.98 "Hg10 mi
3:30 AM48 °FClear.3 mph94%29.98 "Hg10 mi
3:00 AM48 °FClear.2 mph87%30.01 "Hg10 mi
2:30 AM50 °FClear.2 mph82%29.98 "Hg10 mi
2:00 AM50 °FClear.No wind88%30.01 "Hg10 mi
Weather by CustomWeather, © 2015

See weather overviewHow to use our weather pages